Location: Saint-Restitut
(44.3351°N, 4.7915°E)
Time: 03:01:14
(UTC+00:00)

ATLAS 2AS CENTAUR R/B - Pass Details

Date: 03 February 2023
Orbit: 986 x 1226 km, 63.7° (Epoch: 23 March)

Event Time Altitude Azimuth Distance (km) Brightness Sun altitude
Rises 18:23:29 0° 321° (NW) 3,952 6.1 -16.5°
Reaches altitude 10° 18:26:15 10° 319° (NW) 2,955 5.5 -17.0°
Maximum altitude 18:33:07 65° 240° (WSW) 1,148 3.1 -18.2°
Drops below altitude 10° 18:39:35 10° 159° (SSE) 2,787 4.7 -19.3°
Sets 18:42:08 0° 157° (SSE) 3,713 5.3 -19.8°
